Location: Newark
(45.2500°N, 7.5833°E)
Time: 04:00:21
(UTC+00:00)

BEESAT 2 - Pass Details

Date: 22 February 2020
Orbit: 494 x 533 km, 64.9° (Epoch: 04 April)

Event Time Altitude Azimuth Distance (km) Brightness Sun altitude
Rises 18:37:37 0° 336° (NNW) 2,686 ? -16.8°
Reaches altitude 10° 18:41:34 10° 15° (NNE) 1,795 ? -17.5°
Enters shadow 18:42:18 11° 26° (NNE) 1,747 ? -17.6°
